STARLINK-1567 (46038 NORAD) Tracking and Keplerian Element Data

This shows tracking and keplerian element data for the satellite.

Feedback or suggestion? Click here.




ElementValue
Catalog46038
NameSTARLINK-1567
Epoch Orbit1830
Epoch Day336.14747503
Epoch Year2020
RAAN126.2218
Inclination53.0019
Eccentricity0.0002133
Argument of Perigee97.9625
Mean Anonmoly262.1605
Mean Motion15.05587369
Decay Rate-1.47E-06
L11 46038U 20055M 20336.14747503 -.00000147 00000-0 90881-5 0 9992
L22 46038 53.0019 126.2218 0002133 97.9625 262.1605 15.05587369 18303

Live tracking and technical data element details for STARLINK-1567 (NORAD 46038). STARLINK-1567 can be tracked NOW for your location showing map with azimuth and elevation plus other details from your city location.

Track the satellite on the map from your city or location and see movement details for azimuth, elevation, latitude, longitude, range, height, and movement on the map or in text.







IsCatalogInMostPopularTable: catalog: 46038, numindb: 24
Update: records affected: 1



GetName: 46038 STARLINK-1567

Hit Count: updated at: Wed, 02 Dec 2020 06:24:22 GMT